Location: Recife
(8.0585°S, 34.8848°W)
Time: 10:42:43
(UTC-03:00)

Explorer 7 - Pass Details

Date: 18 April 2026
Orbit: 427 x 536 km, 50.2° (Epoch: 14 May)

Event Time Altitude Azimuth Distance (km) Brightness Sun altitude
Rises 00:34:00 0° 317° (NW) 2,475 - -71.3°
Reaches altitude 10° 00:36:11 10° 313° (NW) 1,586 - -70.8°
Maximum altitude 00:39:42 60° 233° (SW) 511 - -69.9°
Drops below altitude 10° 00:43:09 10° 151° (SSE) 1,547 - -69.1°
Sets 00:45:15 0° 148° (SSE) 2,407 - -68.6°
